Location: Newark
(42.8481°N, 0.4872°E)
Time: 09:13:01
(UTC+00:00)

Vanguard 2 - Pass Details

Date: 30 October 2020
Orbit: 554 x 2937 km, 32.9° (Epoch: 26 November)

Event Time Altitude Azimuth Distance (km) Brightness Sun altitude
Rises 02:57:37 0° 274° (W) 6,792 - -39.1°
Reaches altitude 10° 03:06:30 10° 251° (WSW) 5,618 - -37.5°
Maximum altitude 03:12:03 12° 231° (SW) 5,183 - -36.6°
Drops below altitude 10° 03:17:12 10° 211° (SSW) 5,099 - -35.7°
Exits shadow 03:22:20 - 192° (SSW) 5,370 11.6 -34.8°
Sets 03:24:20 0° 185° (S) 5,566 11.8 -34.4°
